Storm Lake, IA

10:48 AM CDT on July 20, 2017 (GMT -0500)
Storm Lake Municipal

Weather History for KSLB - June, 2013

Change the Weather History Date:

Wednesday, June 19, 2013

  Actual Average Record
Temperature  
Mean Temperature 73 °F -  
Max Temperature 86 °F 80 °F 95 °F (1997)
Min Temperature 60 °F 59 °F 44 °F (2004)
Cooling Degree Days 8    
Growing Degree Days 23 (Base 50)    
Moisture  
Dew Point 60 °F    
Average Humidity 61    
Maximum Humidity 94    
Minimum Humidity 37    
Precipitation  
Precipitation 0.00 in - - ()
Sea Level Pressure  
Sea Level Pressure 29.99 in    
Wind  
Wind Speed 10 mph (SSE)    
Max Wind Speed 23 mph    
Max Gust Speed 29 mph    
Visibility 10 miles    
Events      
Averages and records for this station are not official NWS values.
T = Trace of Precipitation, MM = Missing Value Source: NWS Daily Summary

Daily Weather History Graph

Daily Weather History Graph

Search for Another Location

Airport or City:

Trip Planner

Search our weather history database for the weather conditions in past years. The results will help you decide how hot, cold, wet, or windy it might be!

Date:

Astronomy

Jun. 19, 2013 Rise Set
Actual Time 5:43 AM CDT 9:01 PM CDT
Civil Twilight 5:07 AM CDT 9:36 PM CDT
Nautical Twilight 4:22 AM CDT 10:22 PM CDT
Astronomical Twilight 3:26 AM CDT 11:18 PM CDT
Moon 4:52 PM CDT (6/19) 2:32 AM CDT (6/19)
Length of Visible Light 16h 28m
Length of Day
15h 18m
Waxing Gibbous, 80% of the Moon is Illuminated
Jun 19
Waxing Gibbous
Jun 23
Full
Jun 29
Last Quarter
Jul 8
New
Jul 15
First Quarter

Hourly Weather History & Observations

Time (CDT) Temp. Heat Index Dew Point Humidity Pressure Visibility Wind Dir Wind Speed Gust Speed Precip Events Conditions
12:15 AM 68.0 °F - 55.4 °F 64% 30.02 in 10.0 mi East 6.9 mph - N/A   Clear
12:35 AM 68.0 °F - 53.6 °F 60% 30.02 in 10.0 mi ESE 6.9 mph - N/A   Clear
12:55 AM 68.0 °F - 55.4 °F 64% 30.02 in 10.0 mi ESE 5.8 mph - N/A   Clear
1:15 AM 66.2 °F - 55.4 °F 68% 30.02 in 10.0 mi ESE 6.9 mph - N/A   Clear
1:35 AM 66.2 °F - 57.2 °F 73% 30.02 in 10.0 mi ESE 6.9 mph - N/A   Clear
1:55 AM 66.2 °F - 57.2 °F 73% 30.02 in 10.0 mi ESE 8.1 mph - N/A   Clear
2:15 AM 66.2 °F - 57.2 °F 73% 30.01 in 10.0 mi ESE 6.9 mph - N/A   Clear
2:35 AM 66.2 °F - 57.2 °F 73% 30.00 in 10.0 mi SE 8.1 mph - N/A   Clear
2:55 AM 64.4 °F - 57.2 °F 77% 30.00 in 10.0 mi SE 6.9 mph - N/A   Clear
3:15 AM 64.4 °F - 59.0 °F 83% 30.00 in 10.0 mi ESE 6.9 mph - N/A   Clear
3:35 AM 62.6 °F - 59.0 °F 88% 30.00 in 10.0 mi SE 8.1 mph - N/A   Clear
3:55 AM 62.6 °F - 59.0 °F 88% 30.00 in 10.0 mi SE 6.9 mph - N/A   Clear
4:15 AM 62.6 °F - 59.0 °F 88% 30.00 in 10.0 mi SE 6.9 mph - N/A   Clear
4:35 AM 62.6 °F - 59.0 °F 88% 30.00 in 10.0 mi SE 5.8 mph - N/A   Clear
4:55 AM 62.6 °F - 59.0 °F 88% 30.00 in 10.0 mi SE 8.1 mph - N/A   Clear
5:15 AM 60.8 °F - 59.0 °F 94% 30.00 in 10.0 mi SE 8.1 mph - N/A   Clear
5:35 AM 62.6 °F - 59.0 °F 88% 30.01 in 10.0 mi SE 8.1 mph - N/A   Clear
5:55 AM 62.6 °F - 59.0 °F 88% 30.02 in 10.0 mi SE 8.1 mph - N/A   Clear
6:15 AM 62.6 °F - 59.0 °F 88% 30.03 in 10.0 mi SE 6.9 mph - N/A   Clear
6:35 AM 62.6 °F - 60.8 °F 94% 30.03 in 10.0 mi SE 5.8 mph - N/A   Clear
6:55 AM 62.6 °F - 60.8 °F 94% 30.03 in 10.0 mi SE 5.8 mph - N/A   Clear
7:35 AM 66.2 °F - 60.8 °F 83% 30.04 in 10.0 mi SE 6.9 mph - N/A   Clear
7:55 AM 68.0 °F - 62.6 °F 83% 30.04 in 10.0 mi SSE 5.8 mph - N/A   Clear
8:15 AM 69.8 °F - 62.6 °F 78% 30.04 in 10.0 mi SSE 5.8 mph - N/A   Clear
8:35 AM 69.8 °F - 60.8 °F 73% 30.04 in 10.0 mi SSE 5.8 mph - N/A   Clear
8:55 AM 73.4 °F - 62.6 °F 69% 30.04 in 10.0 mi SSE 5.8 mph - N/A   Clear
9:15 AM 75.2 °F - 60.8 °F 61% 30.03 in 10.0 mi SSE 6.9 mph - N/A   Clear
9:35 AM 77.0 °F - 60.8 °F 57% 30.02 in 10.0 mi SSE 6.9 mph - N/A   Clear
9:55 AM 78.8 °F - 57.2 °F 47% 30.02 in 10.0 mi SSE 10.4 mph - N/A   Clear
10:15 AM 78.8 °F - 57.2 °F 47% 30.01 in 10.0 mi South 13.8 mph - N/A   Clear
10:35 AM 78.8 °F - 59.0 °F 51% 30.01 in 10.0 mi SSE 15.0 mph - N/A   Clear
10:55 AM 78.8 °F - 59.0 °F 51% 30.01 in 10.0 mi South 15.0 mph - N/A   Partly Cloudy
11:15 AM 78.8 °F - 59.0 °F 51% 30.01 in 10.0 mi South 16.1 mph 21.9 mph N/A   Scattered Clouds
11:35 AM 80.6 °F 80.8 °F 57.2 °F 45% 30.00 in 10.0 mi SSE 15.0 mph - N/A   Partly Cloudy
11:55 AM 80.6 °F 80.8 °F 57.2 °F 45% 30.00 in 10.0 mi SSE 16.1 mph - N/A   Scattered Clouds
12:15 PM 82.4 °F 82.0 °F 57.2 °F 42% 30.00 in 10.0 mi SSE 13.8 mph 23.0 mph N/A   Partly Cloudy
12:35 PM 82.4 °F 81.7 °F 55.4 °F 39% 30.00 in 10.0 mi SSE 15.0 mph 21.9 mph N/A   Partly Cloudy
12:55 PM 82.4 °F 81.4 °F 53.6 °F 37% 30.00 in 10.0 mi SSE 16.1 mph 23.0 mph N/A   Clear
1:15 PM 84.2 °F 83.0 °F 55.4 °F 37% 29.99 in 10.0 mi SSE 15.0 mph 21.9 mph N/A   Clear
1:35 PM 84.2 °F 83.5 °F 57.2 °F 40% 29.99 in 10.0 mi South 18.4 mph - N/A   Scattered Clouds
1:55 PM 82.4 °F 82.5 °F 59.0 °F 45% 29.99 in 10.0 mi South 17.3 mph - N/A   Scattered Clouds
2:15 PM 82.4 °F 82.9 °F 60.8 °F 48% 29.98 in 10.0 mi South 17.3 mph - N/A   Scattered Clouds
2:35 PM 84.2 °F 84.4 °F 60.8 °F 45% 29.97 in 10.0 mi South 16.1 mph 23.0 mph N/A   Clear
2:55 PM 84.2 °F 84.4 °F 60.8 °F 45% 29.97 in 10.0 mi South 19.6 mph - N/A   Clear
3:15 PM 84.2 °F 84.4 °F 60.8 °F 45% 29.96 in 10.0 mi SSE 17.3 mph - N/A   Clear
3:35 PM 84.2 °F 83.8 °F 59.0 °F 42% 29.96 in 10.0 mi SSE 16.1 mph - N/A   Partly Cloudy
3:55 PM 86.0 °F 85.4 °F 59.0 °F 40% 29.95 in 10.0 mi South 17.3 mph 24.2 mph N/A   Partly Cloudy
4:15 PM 84.2 °F 83.8 °F 59.0 °F 42% 29.95 in 10.0 mi SSE 16.1 mph 24.2 mph N/A   Partly Cloudy
4:35 PM 84.2 °F 83.8 °F 59.0 °F 42% 29.94 in 10.0 mi SSE 19.6 mph 26.5 mph N/A   Partly Cloudy
4:55 PM 84.2 °F 84.4 °F 60.8 °F 45% 29.94 in 10.0 mi South 19.6 mph 25.3 mph N/A   Scattered Clouds
5:15 PM 86.0 °F 85.4 °F 59.0 °F 40% 29.93 in 10.0 mi South 19.6 mph 26.5 mph N/A   Mostly Cloudy
5:35 PM 84.2 °F 83.8 °F 59.0 °F 42% 29.93 in 10.0 mi South 21.9 mph - N/A   Mostly Cloudy
5:55 PM 84.2 °F 84.4 °F 60.8 °F 45% 29.93 in 10.0 mi SSE 18.4 mph 26.5 mph N/A   Mostly Cloudy
6:15 PM 82.4 °F 82.5 °F 59.0 °F 45% 29.93 in 10.0 mi South 19.6 mph 26.5 mph N/A   Partly Cloudy
6:35 PM 82.4 °F 82.5 °F 59.0 °F 45% 29.93 in 10.0 mi South 19.6 mph 28.8 mph N/A   Clear
6:55 PM 82.4 °F 82.5 °F 59.0 °F 45% 29.93 in 10.0 mi SSE 20.7 mph 28.8 mph N/A   Clear
7:15 PM 82.4 °F 82.9 °F 60.8 °F 48% 29.93 in 10.0 mi SSE 16.1 mph 25.3 mph N/A   Clear
7:35 PM 82.4 °F 82.9 °F 60.8 °F 48% 29.92 in 10.0 mi SSE 23.0 mph - N/A   Clear
7:55 PM 80.6 °F 81.5 °F 60.8 °F 51% 29.92 in 10.0 mi SSE 18.4 mph 26.5 mph N/A   Clear
8:15 PM 80.6 °F 81.5 °F 60.8 °F 51% 29.93 in 10.0 mi South 16.1 mph 24.2 mph N/A   Clear
8:35 PM 78.8 °F - 62.6 °F 57% 29.93 in 10.0 mi South 16.1 mph 24.2 mph N/A   Clear
8:55 PM 77.0 °F - 62.6 °F 61% 29.94 in 10.0 mi SSE 13.8 mph 20.7 mph N/A   Clear
9:15 PM 77.0 °F - 62.6 °F 61% 29.94 in 10.0 mi SSE 13.8 mph - N/A   Clear
9:35 PM 77.0 °F - 62.6 °F 61% 29.94 in 10.0 mi SSE 16.1 mph - N/A   Clear
9:55 PM 75.2 °F - 62.6 °F 65% 29.95 in 10.0 mi SSE 11.5 mph 18.4 mph N/A   Clear
10:15 PM 75.2 °F - 62.6 °F 65% 29.97 in 10.0 mi SSE 13.8 mph - N/A   Clear
10:35 PM 73.4 °F - 64.4 °F 73% 29.97 in 10.0 mi SSE 12.7 mph - N/A   Clear
10:55 PM 73.4 °F - 64.4 °F 73% 29.97 in 10.0 mi SSE 12.7 mph - N/A   Clear
11:15 PM 73.4 °F - 64.4 °F 73% 29.98 in 10.0 mi SSE 11.5 mph 18.4 mph N/A   Clear
11:35 PM 73.4 °F - 64.4 °F 73% 29.98 in 10.0 mi SSE 11.5 mph 17.3 mph N/A   Clear
11:55 PM 73.4 °F - 64.4 °F 73% 29.98 in 10.0 mi SSE 15.0 mph - N/A   Clear